This is the latest recevied weather packets stored in our database for station/object KY4GW. If no packets are shown the sender has not sent any weather packets the latest 10 day(s).
| Time | Temp. | Humidity | Pressure | Rain* | Wind** | Luminosity | Snow |
|---|---|---|---|---|---|---|---|
| 1777585361 | 15° C | 40% | 1017.9 hPa | 0 mm | - | 48 W/m² | - |
| 1777585056 | 15° C | 37% | 1017.9 hPa | 0 mm | - | 49 W/m² | - |
| 1777584752 | 15.56° C | 39% | 1017.9 hPa | 0 mm | - | 50 W/m² | - |
| 1777584450 | 15.56° C | 38% | 1017.6 hPa | 0 mm | - | 51 W/m² | - |
| 1777584146 | 15° C | 42% | 1017.6 hPa | 0 mm | - | 52 W/m² | - |
| 1777583846 | 15.56° C | 40% | 1017.6 hPa | 0 mm | - | 79 W/m² | - |
| 1777583542 | 16.11° C | 43% | 1018.3 hPa | 0 mm | - | 378 W/m² | - |
| 1777583241 | 15.56° C | 41% | 1018.3 hPa | 0 mm | - | 460 W/m² | - |
| 1777582935 | 15° C | 47% | 1018.3 hPa | 0 mm | - | 477 W/m² | - |
| 1777582634 | 15.56° C | 38% | 1018.3 hPa | 0 mm | - | 497 W/m² | - |
| 1777582329 | 15.56° C | 41% | 1018.3 hPa | 0 mm | - | 513 W/m² | - |
| 1777582027 | 15.56° C | 39% | 1018.3 hPa | 0 mm | - | 532 W/m² | - |
| 1777581722 | 15.56° C | 40% | 1018.3 hPa | 0 mm | - | 552 W/m² | - |
| 1777581421 | 15.56° C | 40% | 1018.3 hPa | 0 mm | - | 565 W/m² | - |
| 1777581120 | 15.56° C | 42% | 1018.3 hPa | 0 mm | - | 582 W/m² | - |
| 1777580815 | 15.56° C | 40% | 1019 hPa | 0 mm | - | 599 W/m² | - |
| 1777580511 | 15.56° C | 39% | 1019 hPa | 0 mm | - | 615 W/m² | - |
| 1777580206 | 15° C | 41% | 1019 hPa | 0 mm | - | 636 W/m² | - |
| 1777579904 | 15.56° C | 44% | 1019 hPa | 0 mm | - | 652 W/m² | - |
| 1777579604 | 15.56° C | 48% | 1019 hPa | 0 mm | - | 664 W/m² | - |
| 1777579298 | 15° C | 42% | 1019 hPa | 0 mm | - | 673 W/m² | - |
| 1777578994 | 14.44° C | 45% | 1019.3 hPa | 0 mm | - | 705 W/m² | - |
| 1777578689 | 14.44° C | 42% | 1019.3 hPa | 0 mm | - | 705 W/m² | - |
| 1777578388 | 15° C | 43% | 1019.3 hPa | 0 mm | - | 706 W/m² | - |
| 1777578084 | 15° C | 45% | 1019.3 hPa | 0 mm | - | 707 W/m² | - |
* Rain latest hour (hover to see other rain measurements)
** Current wind speed in m/s (hover to see current wind gust speed)